7 * 24
多渠道服务支持
STARLINK-11428 是 SpaceX Starlink 项目中的一颗低轨通信卫星,属于第二代 Starlink 卫星(Gen2)批次。该卫星于2023年发射,旨在为全球用户提供高速、低延迟的互联网服务。它运行在约550公里高的近地轨道,采用先进推进系统和激光通信技术,以提升网络效率和减少空间碎片风险。作为 Starlink 计划的一部分,STARLINK-11428 有助于扩展 SpaceX 的全球宽带覆盖,特别是在偏远和网络基础设施薄弱的地区。
美国
(US)
| 数据来源 | 国际轨道数据 |
| 星历时间: | 2025-11-02T02:59:20+0800 1天前 查看轨道信息 |
| 半长轴: | 6734.178km |
| 偏心率: | 0.0002803 |
| 轨道倾角: | 43.000° |
| 近地点辐角 | 263.916° |
| 升交点赤经 | 218.758° |
| 平近点角 | 96.139° |
| 近地点: | 354.155km |
| 远地点: | 357.931km |
| 周期: | 91.661分钟 |
| 每日圈数: | 15.709992 |